Powrót do katalogu

COSMOS 2251 DEB

AktywnyLEO
NORAD 34556·DEBRIS·🇷🇺 Russia

Wystrzelony Jun 16, 1993 z Plesetsk Cosmodrome

Loading…

Następne Przeloty (najbliższe 24 godziny)

TLE

ŚwieżeSource: Space-Track

Epoka: Sep 14, 2026, 13:31 UTC

1 34556U 93036US  26257.56340064  .00008464  00000-0  98270-3 0  9995
2 34556  74.0127 298.9999 0011821 298.3507 213.7779 14.85468997924156

Śledź COSMOS 2251 DEB w czasie rzeczywistym z AllMySat

Download on the App Store